Regional Weather Roundup
Issued by NWS

Home | Current Version | Previous Version | Graphics & Text | Print | Product List | Glossary On
Versions: 1 2 3 4 5 6 7 8 9 10 11 12 13 14 15 16 17 18 19 20 21 22 23 24 25 26 27 28 29 30 31 32 33 34 35 36 37 38 39 40 41 42 43 44 45 46 47 48 49 50
000
ASUS43 KOAX 242210
RWRNE

WEATHER ROUNDUP FOR NEBRASKA
NATIONAL WEATHER SERVICE OMAHA NE
500 PM CDT SUN MAY 24 2015

NOTES: SATELLITE DATA IS BEING USED TO AUGMENT CLOUD COVER ABOVE
       12000 FEET.
       "FAIR" INDICATES FEW OR NO CLOUDS BELOW 12,000 FEET WITH NO
       SIGNIFICANT WEATHER AND/OR OBSTRUCTIONS TO VISIBILITY.

  * THESE STATIONS DO NOT REPORT WEATHER SUCH AS RAIN...SNOW OR FOG.

NEZ001>004-019>022-054>056-242300-
NEBRASKA PANHANDLE

CITY           SKY/WX    TMP DP  RH WIND       PRES   REMARKS
SCOTTSBLUFF    MOSUNNY   68  46  45 VRB3      29.79F
ALLIANCE       MOSUNNY   69  50  50 SE12      29.78F
CHADRON        PTSUNNY   66  56  70 NE16G22   29.80F
KIMBALL          N/A    N/A N/A N/A MISG        N/A
SIDNEY           N/A     64  49  57 E5        29.81F
$$

NEZ057>060-069>072-079>082-242300-
SOUTHWEST NEBRASKA

CITY           SKY/WX    TMP DP  RH WIND       PRES   REMARKS
NORTH PLATTE   MOSUNNY   69  56  62 E10       29.79F
IMPERIAL       MOSUNNY   71  51  49 SE8       29.76F
LEXINGTON      CLOUDY    65  60  83 S3        29.81F
MCCOOK         PTSUNNY   70  57  63 E13       29.78F
OGALLALA       PTSUNNY   71  52  51 NE7       29.77F
$$

NEZ005>010-023>029-035>040-094-242300-
NORTH CENTRAL NEBRASKA

CITY           SKY/WX    TMP DP  RH WIND       PRES   REMARKS
VALENTINE      PTSUNNY   64  57  78 NE13      29.82S
AINSWORTH      CLOUDY    64  59  83 E7        29.82F
BROKEN BOW     CLOUDY    68  59  73 VRB7      29.81F
O`NEILL        CLOUDY    63  60  90 N3        29.83S
ORD            CLOUDY    66  56  70 CALM      29.80F
THEDFORD       PTSUNNY   69  57  64 E8        29.81F
$$

NEZ041-046>049-061>064-073>077-083>087-242300-
SOUTH CENTRAL NEBRASKA

CITY           SKY/WX    TMP DP  RH WIND       PRES   REMARKS
GRAND ISLAND   CLOUDY    66  58  75 SW6       29.82F
AURORA         CLOUDY    66  60  80 W7        29.82S
HASTINGS       CLOUDY    64  57  78 S5        29.82F
HEBRON         CLOUDY    67  57  71 S5        29.83S
HOLDREGE       CLOUDY    64  56  75 SE3       29.82S
KEARNEY *      CLOUDY    64  57  77 S3        29.82F
YORK           CLOUDY    66  61  82 W8        29.82S
$$

NEZ011>018-030>034-042>045-242300-
NORTHEAST NEBRASKA

CITY           SKY/WX    TMP DP  RH WIND       PRES   REMARKS
NORFOLK        CLOUDY    66  58  75 CALM      29.80F
ALBION         CLOUDY    64  58  81 CALM      29.81S
BLAIR          CLOUDY    67  61  80 SW7       29.80S
COLUMBUS *     CLOUDY    66  55  68 W3        29.84S
FREMONT        CLOUDY    68  61  77 W3        29.81S
TEKAMAH        CLOUDY    68  61  78 SW5       29.79F
WAYNE          CLOUDY    64  61  90 CALM      29.80F
$$

NEZ050>053-065>068-078-088>093-242300-
SOUTHEAST NEBRASKA

CITY           SKY/WX    TMP DP  RH WIND       PRES   REMARKS
LINCOLN        CLOUDY    69  61  75 S6        29.81S
OMAHA EPPLEY   CLOUDY    69  61  75 SW8       29.79F
BEATRICE       CLOUDY    68  61  78 SW9       29.83S
FALLS CITY     LGT RAIN  68  63  84 SW10      29.83R
NEBRASKA CITY  CLOUDY    69  61  75 SW12      29.82R
PLATTSMOUTH    CLOUDY    69  61  75 S6        29.81S
$$

NEZ044-045-051>053-067-242300-
OMAHA AREA

CITY           SKY/WX    TMP DP  RH WIND       PRES   REMARKS
OMAHA EPPLEY   CLOUDY    69  61  75 SW8       29.79F
BLAIR          CLOUDY    67  61  80 SW7       29.80S
FREMONT        CLOUDY    68  61  77 W3        29.81S
MILLARD        CLOUDY    70  62  77 S5        29.80S
OFFUTT AFB     CLOUDY    70  62  76 SW6       29.79S
PLATTSMOUTH    CLOUDY    69  61  75 S6        29.81S
WAHOO          MOCLDY    69  61  76 W3        29.80S
$$


USA.gov is the U.S. government's official web portal to all federal, state and local government web resources and services.